Time,TemperatureF,DewpointF,PressureIn,WindDirection,WindDirectionDegrees,WindSpeedMPH,WindSpeedGustMPH,Humidity,HourlyPrecipIn,Conditions,Clouds,dailyrainin,SoftwareType,DateUTC
2013-03-11 00:03:00,30.0,-99.9,-100.00,North,-999,-999.0,-999.0,-999,-99.99,,,-99.99,,2013-03-11 07:03:00,
2013-03-11 00:12:00,30.0,22.0,-100.00,North,-999,-999.0,-999.0,71,-99.99,,,-99.99,,2013-03-11 07:12:00,
2013-03-11 00:21:00,30.0,22.0,-100.00,North,-999,-999.0,-999.0,71,-99.99,,,-99.99,,2013-03-11 07:21:00,
2013-03-11 00:32:00,29.0,29.0,-100.00,North,-999,-999.0,-999.0,271,-99.99,,,-99.99,,2013-03-11 07:32:00,
2013-03-11 01:02:00,29.0,21.0,-100.00,North,-999,-999.0,-999.0,73,-99.99,,,-99.99,,2013-03-11 08:02:00,
2013-03-11 01:12:00,29.0,21.0,-100.00,North,-999,-999.0,-999.0,73,-99.99,,,-99.99,,2013-03-11 08:12:00,
2013-03-11 01:22:00,29.0,23.0,-100.00,North,-999,-999.0,-999.0,78,-99.99,,,-99.99,,2013-03-11 08:22:00,
2013-03-11 01:32:00,29.0,23.0,-100.00,North,-999,-999.0,-999.0,78,-99.99,,,-99.99,,2013-03-11 08:32:00,
2013-03-11 01:42:00,29.0,23.0,-100.00,North,-999,-999.0,-999.0,76,-99.99,,,-99.99,,2013-03-11 08:42:00,
2013-03-11 01:52:00,28.0,23.0,-100.00,North,-999,-999.0,-999.0,79,-99.99,,,-99.99,,2013-03-11 08:52:00,
2013-03-11 02:02:00,28.0,23.0,-100.00,North,-999,-999.0,-999.0,79,-99.99,,,-99.99,,2013-03-11 09:02:00,
2013-03-11 02:12:00,28.0,23.0,-100.00,North,-999,-999.0,-999.0,79,-99.99,,,-99.99,,2013-03-11 09:12:00,
2013-03-11 02:22:00,28.0,23.0,-100.00,North,-999,-999.0,-999.0,79,-99.99,,,-99.99,,2013-03-11 09:22:00,
2013-03-11 02:42:00,27.0,24.0,-100.00,North,-999,-999.0,-999.0,87,-99.99,,,-99.99,,2013-03-11 09:42:00,
2013-03-11 02:52:00,27.0,24.0,-100.00,North,-999,-999.0,-999.0,87,-99.99,,,-99.99,,2013-03-11 09:52:00,
2013-03-11 03:02:00,27.0,24.0,-100.00,North,-999,-999.0,-999.0,87,-99.99,,,-99.99,,2013-03-11 10:02:00,
2013-03-11 03:12:00,27.0,21.0,-100.00,North,-999,-999.0,-999.0,78,-99.99,,,-99.99,,2013-03-11 10:12:00,
2013-03-11 03:42:00,-999.0,-99.9,-100.00,East,80,0.0,-999.0,-999,-99.99,,,-99.99,,2013-03-11 10:42:00,
2013-03-11 04:02:00,26.0,22.0,-100.00,North,-999,-999.0,-999.0,84,-99.99,,,-99.99,,2013-03-11 11:02:00,
2013-03-11 04:11:00,26.0,22.0,-100.00,North,-999,-999.0,-999.0,84,-99.99,,,-99.99,,2013-03-11 11:11:00,
2013-03-11 04:22:00,27.0,21.0,-100.00,North,-999,-999.0,-999.0,76,-99.99,,,-99.99,,2013-03-11 11:22:00,
2013-03-11 04:32:00,27.0,22.0,-100.00,North,-999,-999.0,-999.0,82,-99.99,,,-99.99,,2013-03-11 11:32:00,
2013-03-11 04:42:00,27.0,22.0,-100.00,North,-999,-999.0,-999.0,82,-99.99,,,-99.99,,2013-03-11 11:42:00,
2013-03-11 04:52:00,26.0,20.0,-100.00,North,-999,-999.0,-999.0,79,-99.99,,,-99.99,,2013-03-11 11:52:00,
2013-03-11 05:21:00,25.0,22.0,-100.00,North,-999,-999.0,-999.0,89,-99.99,,,-99.99,,2013-03-11 12:21:00,
2013-03-11 05:32:00,25.0,0.0,-100.00,North,-999,-999.0,-999.0,32,-99.99,,,-99.99,,2013-03-11 12:32:00,
2013-03-11 05:52:00,25.0,21.0,-100.00,North,-999,-999.0,-999.0,85,-99.99,,,-99.99,,2013-03-11 12:52:00,
2013-03-11 06:02:00,26.0,23.0,-100.00,North,-999,-999.0,-999.0,87,-99.99,,,-99.99,,2013-03-11 13:02:00,
2013-03-11 06:33:00,25.0,-99.9,-100.00,North,-999,-999.0,-999.0,-999,-99.99,,,-99.99,,2013-03-11 13:33:00,
2013-03-11 06:43:00,25.0,-99.9,-100.00,North,-999,-999.0,-999.0,-999,-99.99,,,-99.99,,2013-03-11 13:43:00,
2013-03-11 06:52:00,-7.0,-11.0,-100.00,North,-999,-999.0,-999.0,80,-99.99,,,-99.99,,2013-03-11 13:52:00,
2013-03-11 07:01:00,26.0,21.0,-100.00,North,-999,-999.0,-999.0,81,-99.99,,,-99.99,,2013-03-11 14:01:00,
2013-03-11 07:13:00,26.0,-99.9,-100.00,North,-999,-999.0,-999.0,-999,-99.99,,,-99.99,,2013-03-11 14:13:00,
2013-03-11 07:23:00,26.0,-99.9,-100.00,North,-999,-999.0,-999.0,-999,-99.99,,,-99.99,,2013-03-11 14:23:00,
2013-03-11 07:34:00,26.0,-99.9,-100.00,North,-999,-999.0,-999.0,-999,-99.99,,,-99.99,,2013-03-11 14:34:00,
2013-03-11 07:42:00,25.0,23.0,-100.00,North,-999,-999.0,-999.0,93,-99.99,,,-99.99,,2013-03-11 14:42:00,
2013-03-11 07:53:00,25.0,23.0,-100.00,North,-999,-999.0,-999.0,93,-99.99,,,-99.99,,2013-03-11 14:53:00,
2013-03-11 08:02:00,24.0,24.0,-100.00,North,-999,-999.0,-999.0,98,-99.99,,,-99.99,,2013-03-11 15:02:00,
2013-03-11 08:12:00,24.0,6.0,-100.00,North,-999,-999.0,-999.0,44,-99.99,,,-99.99,,2013-03-11 15:12:00,
2013-03-11 08:42:00,26.0,23.0,-100.00,North,-999,-999.0,-999.0,86,-99.99,,,-99.99,,2013-03-11 15:42:00,
2013-03-11 08:53:00,26.0,23.0,-100.00,North,-999,-999.0,-999.0,86,-99.99,,,-99.99,,2013-03-11 15:53:00,
2013-03-11 09:02:00,26.0,23.0,-100.00,North,-999,-999.0,-999.0,86,-99.99,,,-99.99,,2013-03-11 16:02:00,
2013-03-11 09:12:00,26.0,23.0,-100.00,North,-999,-999.0,-999.0,86,-99.99,,,-99.99,,2013-03-11 16:12:00,
2013-03-11 09:32:00,28.0,25.0,-100.00,North,-999,-999.0,-999.0,89,-99.99,,,-99.99,,2013-03-11 16:32:00,
2013-03-11 10:03:00,-999.0,-99.9,-100.00,East,80,0.0,-999.0,-999,-99.99,,,-99.99,,2013-03-11 17:03:00,
2013-03-11 10:18:00,-999.0,-99.9,-100.00,East,80,0.0,-999.0,-999,-99.99,,,-99.99,,2013-03-11 17:18:00,
2013-03-11 10:24:00,38.0,27.0,-100.00,North,-999,-999.0,-999.0,63,-99.99,,,-99.99,,2013-03-11 17:24:00,
2013-03-11 10:34:00,38.0,27.0,-100.00,North,-999,-999.0,-999.0,63,-99.99,,,-99.99,,2013-03-11 17:34:00,
2013-03-11 10:42:00,-999.0,-99.9,-100.00,North,360,1.0,-999.0,-999,-99.99,,,-99.99,,2013-03-11 17:42:00,
2013-03-11 10:52:00,38.0,27.0,-100.00,North,-999,-999.0,-999.0,64,-99.99,,,-99.99,,2013-03-11 17:52:00,
2013-03-11 11:02:00,38.0,27.0,-100.00,North,-999,-999.0,-999.0,64,-99.99,,,-99.99,,2013-03-11 18:02:00,
2013-03-11 11:11:00,39.0,29.0,-100.00,North,-999,-999.0,-999.0,67,-99.99,,,-99.99,,2013-03-11 18:11:00,
2013-03-11 11:22:00,42.0,33.0,-100.00,West,260,1.0,-999.0,69,-99.99,,,-99.99,,2013-03-11 18:22:00,
2013-03-11 11:32:00,42.0,33.0,-100.00,West,260,1.0,-999.0,69,-99.99,,,-99.99,,2013-03-11 18:32:00,
2013-03-11 11:52:00,43.0,35.0,-100.00,North,-999,-999.0,-999.0,71,-99.99,,,-99.99,,2013-03-11 18:52:00,
2013-03-11 12:02:00,-999.0,-99.9,-100.00,West,280,2.0,-999.0,-999,-99.99,,,-99.99,,2013-03-11 19:02:00,
2013-03-11 12:13:00,45.0,-99.9,-100.00,North,-999,-999.0,-999.0,-999,-99.99,,,-99.99,,2013-03-11 19:13:00,
2013-03-11 12:22:00,46.0,29.0,-100.00,West,280,2.0,-999.0,51,-99.99,,,-99.99,,2013-03-11 19:22:00,
2013-03-11 12:32:00,47.0,29.0,-100.00,North,-999,-999.0,-999.0,49,-99.99,,,-99.99,,2013-03-11 19:32:00,
2013-03-11 12:43:00,-999.0,-99.9,-100.00,West,280,2.0,-999.0,-999,-99.99,,,-99.99,,2013-03-11 19:43:00,
2013-03-11 12:53:00,-999.0,-99.9,-100.00,West,280,3.0,-999.0,-999,-99.99,,,-99.99,,2013-03-11 19:53:00,
2013-03-11 13:03:00,-999.0,-99.9,-100.00,West,280,3.0,-999.0,-999,-99.99,,,-99.99,,2013-03-11 20:03:00,
2013-03-11 13:12:00,-999.0,-99.9,-100.00,West,280,3.0,-999.0,-999,-99.99,,,-99.99,,2013-03-11 20:12:00,
2013-03-11 13:22:00,50.0,33.0,-100.00,North,-999,-999.0,-999.0,52,-99.99,,,-99.99,,2013-03-11 20:22:00,
2013-03-11 13:32:00,49.0,26.0,-100.00,North,-999,-999.0,-999.0,41,-99.99,,,-99.99,,2013-03-11 20:32:00,
2013-03-11 13:42:00,49.0,26.0,-100.00,North,-999,-999.0,-999.0,41,-99.99,,,-99.99,,2013-03-11 20:42:00,
2013-03-11 13:52:00,51.0,32.0,-100.00,North,-999,-999.0,-999.0,48,-99.99,,,-99.99,,2013-03-11 20:52:00,
2013-03-11 14:02:00,51.0,33.0,-100.00,North,-999,-999.0,-999.0,50,-99.99,,,-99.99,,2013-03-11 21:02:00,
2013-03-11 14:13:00,-999.0,-99.9,-100.00,WNW,290,3.0,-999.0,-999,-99.99,,,-99.99,,2013-03-11 21:13:00,
2013-03-11 14:23:00,-999.0,-99.9,-100.00,WNW,290,4.0,-999.0,-999,-99.99,,,-99.99,,2013-03-11 21:23:00,
2013-03-11 14:32:00,49.0,31.0,-100.00,North,-999,-999.0,-999.0,49,-99.99,,,-99.99,,2013-03-11 21:32:00,
2013-03-11 14:44:00,-999.0,-99.9,-100.00,WNW,290,38.0,-999.0,-999,-99.99,,,-99.99,,2013-03-11 21:44:00,
2013-03-11 14:51:00,49.0,39.0,-100.00,SW,230,4.0,-999.0,69,-99.99,,,-99.99,,2013-03-11 21:51:00,
2013-03-11 15:02:00,47.0,38.0,-100.00,North,-999,-999.0,-999.0,71,-99.99,,,-99.99,,2013-03-11 22:02:00,
2013-03-11 15:12:00,47.0,32.0,-100.00,SW,230,3.0,-999.0,55,-99.99,,,-99.99,,2013-03-11 22:12:00,
2013-03-11 15:22:00,47.0,32.0,-100.00,SW,230,3.0,-999.0,55,-99.99,,,-99.99,,2013-03-11 22:22:00,
2013-03-11 15:43:00,52.0,31.0,-100.00,North,-999,-999.0,-999.0,45,-99.99,,,-99.99,,2013-03-11 22:43:00,
2013-03-11 15:53:00,52.0,31.0,-100.00,North,-999,-999.0,-999.0,45,-99.99,,,-99.99,,2013-03-11 22:53:00,
2013-03-11 16:03:00,-999.0,-99.9,-100.00,West,260,2.0,-999.0,-999,-99.99,,,-99.99,,2013-03-11 23:03:00,
2013-03-11 16:12:00,53.0,26.0,-100.00,North,-999,-999.0,-999.0,34,-99.99,,,-99.99,,2013-03-11 23:12:00,
2013-03-11 16:22:00,-999.0,-99.9,-100.00,West,260,2.0,-999.0,-999,-99.99,,,-99.99,,2013-03-11 23:22:00,
2013-03-11 16:32:00,54.0,23.0,-100.00,North,-999,-999.0,-999.0,29,-99.99,,,-99.99,,2013-03-11 23:32:00,
2013-03-11 16:42:00,55.0,26.0,-100.00,North,-999,-999.0,-999.0,32,-99.99,,,-99.99,,2013-03-11 23:42:00,
2013-03-11 16:54:00,-999.0,-99.9,-100.00,West,260,1.0,-999.0,-999,-99.99,,,-99.99,,2013-03-11 23:54:00,
2013-03-11 17:02:00,-999.0,-99.9,-100.00,West,260,1.0,-999.0,-999,-99.99,,,-99.99,,2013-03-12 00:02:00,
2013-03-11 17:12:00,56.0,27.0,-100.00,North,-999,-999.0,-999.0,32,-99.99,,,-99.99,,2013-03-12 00:12:00,
2013-03-11 17:23:00,-999.0,-99.9,-100.00,West,260,1.0,-999.0,-999,-99.99,,,-99.99,,2013-03-12 00:23:00,
2013-03-11 17:32:00,53.0,23.0,-100.00,North,-999,-999.0,-999.0,30,-99.99,,,-99.99,,2013-03-12 00:32:00,
2013-03-11 17:42:00,55.0,24.0,-100.00,North,-999,-999.0,-999.0,29,-99.99,,,-99.99,,2013-03-12 00:42:00,
2013-03-11 17:53:00,55.0,24.0,-100.00,North,-999,-999.0,-999.0,29,-99.99,,,-99.99,,2013-03-12 00:53:00,
2013-03-11 18:02:00,55.0,26.0,-100.00,North,-999,-999.0,-999.0,32,-99.99,,,-99.99,,2013-03-12 01:02:00,
2013-03-11 18:12:00,55.0,28.0,-100.00,North,-999,-999.0,-999.0,35,-99.99,,,-99.99,,2013-03-12 01:12:00,
2013-03-11 18:22:00,55.0,28.0,-100.00,North,-999,-999.0,-999.0,35,-99.99,,,-99.99,,2013-03-12 01:22:00,
2013-03-11 18:32:00,50.0,30.0,-100.00,North,-999,-999.0,-999.0,46,-99.99,,,-99.99,,2013-03-12 01:32:00,
2013-03-11 18:52:00,49.0,36.0,-100.00,North,-999,-999.0,-999.0,60,-99.99,,,-99.99,,2013-03-12 01:52:00,
2013-03-11 19:02:00,49.0,36.0,-100.00,North,-999,-999.0,-999.0,60,-99.99,,,-99.99,,2013-03-12 02:02:00,
2013-03-11 19:12:00,47.0,38.0,-100.00,North,-999,-999.0,-999.0,71,-99.99,,,-99.99,,2013-03-12 02:12:00,
2013-03-11 19:22:00,46.0,40.0,-100.00,North,-999,-999.0,-999.0,78,-99.99,,,-99.99,,2013-03-12 02:22:00,
2013-03-11 19:32:00,46.0,40.0,-100.00,North,-999,-999.0,-999.0,78,-99.99,,,-99.99,,2013-03-12 02:32:00,
2013-03-11 19:42:00,45.0,41.0,-100.00,North,-999,-999.0,-999.0,87,-99.99,,,-99.99,,2013-03-12 02:42:00,
2013-03-11 19:52:00,43.0,42.0,-100.00,North,-999,-999.0,-999.0,95,-99.99,,,-99.99,,2013-03-12 02:52:00,
2013-03-11 20:02:00,43.0,42.0,-100.00,North,-999,-999.0,-999.0,95,-99.99,,,-99.99,,2013-03-12 03:02:00,
2013-03-11 20:12:00,41.0,39.0,-100.00,North,-999,-999.0,-999.0,93,-99.99,,,-99.99,,2013-03-12 03:12:00,
2013-03-11 20:22:00,41.0,39.0,-100.00,North,-999,-999.0,-999.0,93,-99.99,,,-99.99,,2013-03-12 03:22:00,
2013-03-11 20:42:00,40.0,39.0,-100.00,North,-999,-999.0,-999.0,94,-99.99,,,-99.99,,2013-03-12 03:42:00,
2013-03-11 20:52:00,38.0,35.0,-100.00,North,-999,-999.0,-999.0,89,-99.99,,,-99.99,,2013-03-12 03:52:00,
2013-03-11 21:23:00,37.0,-99.9,-100.00,North,-999,-999.0,-999.0,-999,-99.99,,,-99.99,,2013-03-12 04:23:00,
2013-03-11 21:32:00,36.0,31.0,-100.00,North,-999,-999.0,-999.0,82,-99.99,,,-99.99,,2013-03-12 04:32:00,
2013-03-11 21:42:00,36.0,31.0,-100.00,North,-999,-999.0,-999.0,82,-99.99,,,-99.99,,2013-03-12 04:42:00,
2013-03-11 21:52:00,37.0,33.0,-100.00,North,-999,-999.0,-999.0,86,-99.99,,,-99.99,,2013-03-12 04:52:00,
2013-03-11 22:02:00,36.0,34.0,-100.00,West,260,0.0,-999.0,91,-99.99,,,-99.99,,2013-03-12 05:02:00,
2013-03-11 22:21:00,35.0,32.0,-100.00,North,-999,-999.0,-999.0,89,-99.99,,,-99.99,,2013-03-12 05:21:00,
2013-03-11 22:32:00,34.0,32.0,-100.00,North,-999,-999.0,-999.0,93,-99.99,,,-99.99,,2013-03-12 05:32:00,
2013-03-11 22:52:00,34.0,30.0,-100.00,North,-999,-999.0,-999.0,85,-99.99,,,-99.99,,2013-03-12 05:52:00,
2013-03-11 23:02:00,33.0,29.0,-100.00,North,-999,-999.0,-999.0,85,-99.99,,,-99.99,,2013-03-12 06:02:00,
2013-03-11 23:11:00,33.0,29.0,-100.00,North,-999,-999.0,-999.0,85,-99.99,,,-99.99,,2013-03-12 06:11:00,
2013-03-11 23:22:00,34.0,29.0,-100.00,North,-999,-999.0,-999.0,82,-99.99,,,-99.99,,2013-03-12 06:22:00,
2013-03-11 23:32:00,34.0,30.0,-100.00,North,-999,-999.0,-999.0,83,-99.99,,,-99.99,,2013-03-12 06:32:00,
2013-03-11 23:42:00,33.0,30.0,-100.00,North,-999,-999.0,-999.0,88,-99.99,,,-99.99,,2013-03-12 06:42:00,
2013-03-11 23:52:00,33.0,30.0,-100.00,North,-999,-999.0,-999.0,88,-99.99,,,-99.99,,2013-03-12 06:52:00,